| time (UTC) | temp C | wind direction | speed KPH | gust KPH | rain 1hr cm | rain 24hr cm | rain mn cm | humidity % | barometer mb |
| 20260902222629 | 29 | 96 | 6.4 | 11.3 | 0.00 | 1.30 | 1.30 | 81 | 1013.1 |
| 20260902220521 | 29 | 87 | 6.4 | 12.9 | 0.00 | 1.30 | 1.30 | 81 | 1013.2 |
| 20260902214409 | 29 | 94 | 4.8 | 11.3 | 0.00 | 1.30 | 1.30 | 81 | 1013.5 |
| 20260902212241 | 29 | 89 | 4.8 | 11.3 | 0.00 | 1.30 | 1.30 | 81 | 1013.4 |
| 20260902211235 | 29 | 109 | 4.8 | 12.9 | 0.00 | 1.30 | 1.30 | 81 | 1013.3 |
| 20260902210213 | 29 | 104 | 4.8 | 14.5 | 0.00 | 1.30 | 1.30 | 81 | 1013.3 |
| 20260902202917 | 29 | 111 | 6.4 | 12.9 | 0.00 | 1.30 | 1.30 | 81 | 1013.6 |
| 20260902201930 | 30 | 122 | 6.4 | 12.9 | 0.00 | 1.30 | 1.30 | 79 | 1013.6 |
| 20260902194616 | 29 | 123 | 8.0 | 12.9 | 0.00 | 1.30 | 1.30 | 78 | 1013.7 |
| 20260902193600 | 30 | 63 | 6.4 | 12.9 | 0.00 | 1.30 | 1.30 | 78 | 1013.9 |
| 20260902192538 | 29 | 131 | 4.8 | 11.3 | 0.00 | 1.30 | 1.30 | 78 | 1014.1 |
| 20260902191544 | 29 | 69 | 4.8 | 12.9 | 0.00 | 1.30 | 1.30 | 79 | 1014.2 |
| 20260902190550 | 29 | 68 | 6.4 | 12.9 | 0.00 | 1.30 | 1.30 | 79 | 1014.4 |
| 20260902185556 | 29 | 67 | 6.4 | 12.9 | 0.00 | 1.30 | 1.30 | 78 | 1014.4 |
| 20260902184613 | 29 | 91 | 6.4 | 12.9 | 0.00 | 1.30 | 1.30 | 77 | 1014.4 |
| 20260902183609 | 29 | 126 | 4.8 | 14.5 | 0.00 | 1.30 | 1.30 | 79 | 1014.4 |
| 20260902182544 | 29 | 86 | 6.4 | 14.5 | 0.00 | 1.30 | 1.30 | 79 | 1014.4 |
| 20260902181550 | 29 | 111 | 8.0 | 14.5 | 0.00 | 1.30 | 1.30 | 79 | 1014.4 |
| 20260902180602 | 29 | 134 | 6.4 | 12.9 | 0.00 | 1.30 | 1.30 | 79 | 1014.6 |
| 20260902175543 | 30 | 102 | 3.2 | 12.9 | 0.00 | 1.30 | 1.30 | 79 | 1014.7 |
| 20260902174513 | 30 | 117 | 4.8 | 12.9 | 0.00 | 1.30 | 1.30 | 79 | 1014.8 |
| 20260902173442 | 30 | 108 | 4.8 | 12.9 | 0.00 | 1.30 | 1.30 | 78 | 1014.8 |
| 20260902172449 | 30 | 100 | 6.4 | 12.9 | 0.00 | 1.30 | 1.30 | 78 | 1014.9 |
| 20260902170300 | 30 | 109 | 6.4 | 14.5 | 0.00 | 1.30 | 1.30 | 78 | 1015.0 |
| 20260902165222 | 30 | 125 | 6.4 | 14.5 | 0.00 | 1.30 | 1.30 | 78 | 1015.3 |
| 20260902164218 | 30 | 84 | 6.4 | 12.9 | 0.00 | 1.30 | 1.30 | 79 | 1015.4 |
| 20260902163215 | 30 | 64 | 6.4 | 12.9 | 0.00 | 1.30 | 1.30 | 78 | 1015.6 |
| 20260902162155 | 30 | 51 | 4.8 | 12.9 | 0.00 | 1.30 | 1.30 | 78 | 1015.7 |
| 20260902161122 | 30 | 88 | 4.8 | 11.3 | 0.00 | 1.30 | 1.30 | 79 | 1015.6 |
| 20260902160143 | 30 | 107 | 4.8 | 11.3 | 0.00 | 1.30 | 1.30 | 79 | 1015.8 |
| 20260902155203 | 30 | 89 | 4.8 | 11.3 | 0.00 | 1.30 | 1.30 | 80 | 1015.8 |
| 20260902151839 | 29 | 46 | 3.2 | 11.3 | 0.00 | 1.30 | 1.30 | 81 | 1015.8 |
| 20260902150825 | 29 | 59 | 4.8 | 11.3 | 0.00 | 1.30 | 1.30 | 81 | 1015.7 |
| 20260902145756 | 29 | 55 | 4.8 | 11.3 | 0.00 | 1.30 | 1.30 | 80 | 1015.7 |
| 20260902144727 | 30 | 19 | 4.8 | 11.3 | 0.00 | 1.30 | 1.30 | 79 | 1015.7 |
| 20260902143740 | 30 | 30 | 4.8 | 11.3 | 0.00 | 1.30 | 1.30 | 79 | 1015.6 |
| 20260902141545 | 30 | 70 | 4.8 | 11.3 | 0.00 | 1.30 | 1.30 | 79 | 1015.7 |
| 20260902140516 | 29 | 45 | 3.2 | 11.3 | 0.00 | 1.30 | 1.30 | 79 | 1015.7 |
| 20260902135501 | 29 | 333 | 6.4 | 12.9 | 0.00 | 1.30 | 1.30 | 80 | 1015.5 |
| 20260902134500 | 29 | 0 | 4.8 | 12.9 | 0.00 | 1.30 | 1.30 | 81 | 1015.6 |
| 20260902133457 | 28 | 39 | 3.2 | 8.0 | 0.00 | 1.30 | 1.30 | 83 | 1015.4 |
| 20260902132503 | 28 | 0 | 3.2 | 6.4 | 0.00 | 1.30 | 1.30 | 84 | 1015.5 |
| 20260902131427 | 28 | 24 | 3.2 | 6.4 | 0.00 | 1.30 | 1.30 | 86 | 1015.4 |
| 20260902124139 | 28 | 348 | 4.8 | 8.0 | 0.00 | 1.30 | 1.30 | 88 | 1015.3 |
| 20260902123112 | 27 | 355 | 4.8 | 11.3 | 0.00 | 1.30 | 1.30 | 89 | 1015.2 |
| 20260902122044 | 27 | 334 | 4.8 | 8.0 | 0.00 | 1.30 | 1.30 | 89 | 1015.1 |
| 20260902121026 | 27 | 315 | 4.8 | 6.4 | 0.00 | 1.30 | 1.30 | 89 | 1015.2 |
| 20260902120042 | 27 | 327 | 0.0 | 4.8 | 0.00 | 1.30 | 1.30 | 89 | 1015.2 |
| 20260902115007 | 27 | 350 | 0.0 | 0.0 | 0.00 | 1.30 | 1.30 | 89 | 1015.2 |
| 20260902114007 | 27 | 332 | 0.0 | 0.0 | 0.00 | 1.30 | 1.30 | 88 | 1015.0 |
| 20260902112953 | 27 | 331 | 0.0 | 0.0 | 0.00 | 1.30 | 1.30 | 88 | 1014.8 |
| 20260902111928 | 27 | 342 | 0.0 | 0.0 | 0.00 | 1.30 | 1.30 | 88 | 1014.9 |
| 20260902110901 | 27 | 355 | 0.0 | 0.0 | 0.00 | 1.30 | 1.30 | 88 | 1014.7 |
| 20260902105844 | 27 | 305 | 0.0 | 0.0 | 0.00 | 1.30 | 1.30 | 87 | 1014.5 |
| 20260902104900 | 27 | 315 | 0.0 | 3.2 | 0.00 | 1.30 | 1.30 | 87 | 1014.5 |
| 20260902103846 | 27 | 16 | 0.0 | 0.0 | 0.00 | 1.30 | 1.30 | 87 | 1014.3 |
| 20260902102844 | 27 | 16 | 0.0 | 0.0 | 0.00 | 1.30 | 1.30 | 86 | 1014.4 |
| 20260902101813 | 27 | 16 | 0.0 | 0.0 | 0.00 | 1.30 | 1.30 | 85 | 1014.2 |
| 20260902100821 | 27 | 10 | 0.0 | 0.0 | 0.00 | 1.30 | 1.30 | 85 | 1014.2 |
| 20260902095747 | 27 | 344 | 1.6 | 9.7 | 0.00 | 1.30 | 1.30 | 84 | 1014.1 |
| 20260902094715 | 27 | 304 | 4.8 | 11.3 | 0.00 | 1.30 | 1.30 | 85 | 1014.3 |
| 20260902093733 | 27 | 337 | 6.4 | 11.3 | 0.00 | 1.30 | 1.30 | 86 | 1014.2 |
| 20260902092700 | 27 | 309 | 6.4 | 12.9 | 0.00 | 1.30 | 1.30 | 86 | 1014.2 |
| 20260902090556 | 26 | 285 | 1.6 | 9.7 | 2.90 | 1.12 | 1.17 | 87 | 1014.2 |
| 20260902085606 | 26 | 253 | 9.7 | 20.9 | 2.11 | 0.41 | 0.46 | 87 | 1014.1 |
| 20260902084539 | 27 | 192 | 16.1 | 20.9 | 2.44 | 0.00 | 0.05 | 86 | 1014.0 |
| 20260902083535 | 27 | 215 | 14.5 | 17.7 | 0.00 | 0.00 | 0.00 | 85 | 1013.8 |
| 20260902082540 | 27 | 217 | 11.3 | 16.1 | 0.00 | 0.00 | 0.00 | 87 | 1013.9 |
| 20260902081514 | 27 | 209 | 12.9 | 16.1 | 0.00 | 0.00 | 0.00 | 87 | 1014.0 |
| 20260902080458 | 27 | 260 | 9.7 | 14.5 | 0.00 | 0.00 | 0.00 | 87 | 1014.0 |
| 20260902075514 | 27 | 281 | 11.3 | 14.5 | 0.00 | 0.00 | 0.00 | 86 | 1014.0 |
| 20260902073341 | 27 | 327 | 4.8 | 8.0 | 0.00 | 0.00 | 0.00 | 86 | 1013.9 |
| 20260902072357 | 28 | 321 | 4.8 | 8.0 | 0.00 | 0.00 | 0.00 | 86 | 1014.0 |
| 20260902071328 | 27 | 325 | 3.2 | 6.4 | 0.00 | 0.00 | 0.00 | 86 | 1014.1 |
| 20260902070254 | 27 | 5 | 3.2 | 4.8 | 0.00 | 0.00 | 0.00 | 86 | 1014.1 |
| 20260902065308 | 27 | 350 | 3.2 | 6.4 | 0.00 | 0.00 | 0.00 | 86 | 1014.1 |
| 20260902063214 | 28 | 340 | 4.8 | 9.7 | 0.00 | 0.00 | 0.00 | 86 | 1014.3 |
| 20260902062235 | 27 | 310 | 3.2 | 6.4 | 0.00 | 0.00 | 0.00 | 86 | 1014.2 |
| 20260902061215 | 28 | 346 | 1.6 | 4.8 | 0.00 | 0.00 | 0.00 | 86 | 1014.3 |
| 20260902053855 | 28 | 350 | 1.6 | 3.2 | 0.00 | 0.00 | 0.00 | 84 | 1014.6 |
| 20260902052840 | 28 | 14 | 1.6 | 4.8 | 0.00 | 0.00 | 0.00 | 84 | 1014.6 |
| 20260902051838 | 28 | 20 | 1.6 | 9.7 | 0.00 | 0.00 | 0.00 | 84 | 1014.5 |
| 20260902050850 | 28 | 33 | 3.2 | 9.7 | 0.00 | 0.00 | 0.00 | 84 | 1014.4 |
| 20260902044719 | 28 | 355 | 0.0 | 0.0 | 0.00 | 0.00 | 0.00 | 84 | 1014.6 |
| 20260902043714 | 28 | 348 | 0.0 | 0.0 | 0.00 | 0.00 | 0.00 | 84 | 1014.6 |
| 20260902042726 | 28 | 5 | 0.0 | 0.0 | 0.00 | 0.00 | 0.00 | 84 | 1014.6 |
| 20260902041715 | 28 | 15 | 1.6 | 6.4 | 0.00 | 0.00 | 0.00 | 84 | 1014.7 |
| 20260902040642 | 28 | 35 | 1.6 | 6.4 | 0.00 | 0.00 | 0.00 | 83 | 1014.7 |
| 20260902035635 | 28 | 355 | 3.2 | 9.7 | 0.00 | 0.00 | 0.00 | 83 | 1014.7 |
| 20260902031235 | 28 | 0 | 3.2 | 9.7 | 0.00 | 0.00 | 0.00 | 83 | 1015.3 |
| 20260902030206 | 28 | 355 | 4.8 | 11.3 | 0.00 | 0.00 | 0.00 | 83 | 1015.4 |
| 20260902025151 | 28 | 355 | 6.4 | 11.3 | 0.00 | 0.00 | 0.00 | 83 | 1015.6 |
| 20260902024115 | 28 | 38 | 8.0 | 14.5 | 0.00 | 0.00 | 0.00 | 82 | 1015.7 |
| 20260902023039 | 28 | 34 | 8.0 | 14.5 | 0.00 | 0.00 | 0.00 | 82 | 1015.5 |
| 20260902022021 | 28 | 339 | 8.0 | 16.1 | 0.00 | 0.00 | 0.00 | 82 | 1015.5 |
| 20260902015833 | 28 | 0 | 6.4 | 12.9 | 0.00 | 0.00 | 0.00 | 82 | 1015.4 |
| 20260902014758 | 28 | 15 | 4.8 | 12.9 | 0.00 | 0.00 | 0.00 | 82 | 1015.6 |
| 20260902012640 | 28 | 355 | 8.0 | 16.1 | 0.00 | 0.00 | 0.00 | 80 | 1015.2 |
| 20260902011614 | 28 | 355 | 4.8 | 12.9 | 0.00 | 0.00 | 0.00 | 80 | 1015.1 |
| 20260902010556 | 28 | 5 | 8.0 | 14.5 | 0.00 | 0.00 | 0.00 | 81 | 1015.1 |
| 20260902005617 | 28 | 0 | 8.0 | 16.1 | 0.00 | 0.00 | 0.00 | 82 | 1015.1 |
| 20260902004545 | 28 | 348 | 8.0 | 16.1 | 0.00 | 0.00 | 0.00 | 82 | 1015.1 |
| 20260902003508 | 28 | 355 | 4.8 | 12.9 | 0.00 | 0.00 | 0.00 | 82 | 1015.1 |
| 20260902001405 | 28 | 0 | 6.4 | 14.5 | 0.00 | 0.00 | 0.00 | 82 | 1015.2 |
| 20260902000407 | 28 | 351 | 6.4 | 14.5 | 0.00 | 0.00 | 0.00 | 81 | 1015.2 |
| 20260901235411 | 28 | 15 | 4.8 | 11.3 | 0.00 | 0.00 | 0.00 | 82 | 1015.2 |
| 20260901234336 | 28 | 0 | 4.8 | 14.5 | 0.00 | 0.00 | 0.00 | 82 | 1015.2 |
| 20260901233327 | 28 | 9 | 6.4 | 14.5 | 0.00 | 0.00 | 0.00 | 81 | 1015.0 |
| 20260901232324 | 28 | 344 | 8.0 | 16.1 | 0.00 | 0.00 | 0.00 | 81 | 1015.0 |
| 20260901231330 | 28 | 9 | 8.0 | 16.1 | 0.00 | 0.00 | 0.00 | 81 | 1014.9 |
| 20260901230341 | 29 | 18 | 9.7 | 16.1 | 0.00 | 0.00 | 0.00 | 80 | 1014.8 |
| 20260901225319 | 29 | 24 | 9.7 | 16.1 | 0.00 | 0.00 | 0.00 | 78 | 1014.7 |
| 20260901224333 | 29 | 37 | 6.4 | 12.9 | 0.00 | 0.00 | 0.00 | 78 | 1014.7 |
| 20260901223311 | 29 | 351 | 6.4 | 16.1 | 0.00 | 0.00 | 0.00 | 79 | 1014.7 |